Year,Month,Day,Hour,Minute,Value (Times are PST for temperature in C)
2006,07,15,00,00,15.10
2006,07,15,00,01,15.10
2006,07,15,00,02,15.10
2006,07,15,00,03,15.10
2006,07,15,00,04,15.00
2006,07,15,00,05,15.00
2006,07,15,00,06,15.00
2006,07,15,00,07,14.90
2006,07,15,00,08,14.90
2006,07,15,00,09,14.90
2006,07,15,00,10,14.80
2006,07,15,00,11,14.80
2006,07,15,00,12,14.80
2006,07,15,00,13,14.80
2006,07,15,00,14,14.80
2006,07,15,00,15,14.80
2006,07,15,00,16,14.70
2006,07,15,00,17,14.70
2006,07,15,00,18,14.70
2006,07,15,00,19,14.70
2006,07,15,00,20,14.60
2006,07,15,00,21,14.60
2006,07,15,00,22,14.60
2006,07,15,00,23,14.60
2006,07,15,00,24,14.60
2006,07,15,00,25,14.50
2006,07,15,00,26,14.50
2006,07,15,00,27,14.50
2006,07,15,00,28,14.50
2006,07,15,00,29,14.40
2006,07,15,00,30,14.40
2006,07,15,00,31,14.40
2006,07,15,00,32,14.30
2006,07,15,00,33,14.30
2006,07,15,00,34,14.20
2006,07,15,00,35,14.20
2006,07,15,00,36,14.20
2006,07,15,00,37,14.20
2006,07,15,00,38,14.10
2006,07,15,00,39,14.10
2006,07,15,00,40,14.00
2006,07,15,00,41,14.00
2006,07,15,00,42,13.90
2006,07,15,00,43,13.90
2006,07,15,00,44,13.90
2006,07,15,00,45,13.80
2006,07,15,00,46,13.80
2006,07,15,00,47,13.70
2006,07,15,00,48,13.70
2006,07,15,00,49,13.70
2006,07,15,00,50,13.70
2006,07,15,00,51,13.60
2006,07,15,00,52,13.60
2006,07,15,00,53,13.50
2006,07,15,00,54,13.50
2006,07,15,00,55,13.50
2006,07,15,00,56,13.40
2006,07,15,00,57,13.40
2006,07,15,00,58,13.30
2006,07,15,00,59,13.30
2006,07,15,01,00,13.30
2006,07,15,01,01,13.30
2006,07,15,01,02,13.30
2006,07,15,01,03,13.20
2006,07,15,01,04,13.20
2006,07,15,01,05,13.10
2006,07,15,01,06,13.10
2006,07,15,01,07,13.10
2006,07,15,01,08,13.00
2006,07,15,01,09,13.00
2006,07,15,01,10,13.00
2006,07,15,01,11,13.00
2006,07,15,01,12,13.00
2006,07,15,01,13,12.90
2006,07,15,01,14,12.90
2006,07,15,01,15,12.90
2006,07,15,01,16,12.90
2006,07,15,01,17,12.90
2006,07,15,01,18,12.90
2006,07,15,01,19,12.90
2006,07,15,01,20,12.90
2006,07,15,01,21,12.90
2006,07,15,01,22,12.90
2006,07,15,01,23,12.90
2006,07,15,01,24,12.90
2006,07,15,01,25,12.90
2006,07,15,01,26,12.90
2006,07,15,01,27,12.80
2006,07,15,01,28,12.80
2006,07,15,01,29,12.80
2006,07,15,01,30,12.80
2006,07,15,01,31,12.80
2006,07,15,01,32,12.80
2006,07,15,01,33,12.80
2006,07,15,01,34,12.80
2006,07,15,01,35,12.80
2006,07,15,01,36,12.80
2006,07,15,01,37,12.80
2006,07,15,01,38,12.80
2006,07,15,01,39,12.80
2006,07,15,01,40,12.80
2006,07,15,01,41,12.80
2006,07,15,01,42,12.80
2006,07,15,01,43,12.80
2006,07,15,01,44,12.80
2006,07,15,01,45,12.80
2006,07,15,01,46,12.80
2006,07,15,01,47,12.80
2006,07,15,01,48,12.80
2006,07,15,01,49,12.80
2006,07,15,01,50,12.80
2006,07,15,01,51,12.80
2006,07,15,01,52,12.80
2006,07,15,01,53,12.80
2006,07,15,01,54,12.80
2006,07,15,01,55,12.80
2006,07,15,01,56,12.80
2006,07,15,01,57,12.80
2006,07,15,01,58,12.80
2006,07,15,01,59,12.80
2006,07,15,02,00,12.80
2006,07,15,02,01,12.80
2006,07,15,02,02,12.80
2006,07,15,02,03,12.80
2006,07,15,02,04,12.80
2006,07,15,02,05,12.80
2006,07,15,02,06,12.80
2006,07,15,02,07,12.80
2006,07,15,02,08,12.80
2006,07,15,02,09,12.80
2006,07,15,02,10,12.80
2006,07,15,02,11,12.80
2006,07,15,02,12,12.80
2006,07,15,02,13,12.80
2006,07,15,02,14,12.80
2006,07,15,02,15,12.80
2006,07,15,02,16,12.90
2006,07,15,02,17,12.90
2006,07,15,02,18,12.90
2006,07,15,02,19,12.90
2006,07,15,02,20,12.90
2006,07,15,02,21,12.90
2006,07,15,02,22,12.90
2006,07,15,02,23,12.90
2006,07,15,02,24,12.90
2006,07,15,02,25,12.90
2006,07,15,02,26,12.90
2006,07,15,02,27,12.90
2006,07,15,02,28,12.90
2006,07,15,02,29,12.90
2006,07,15,02,30,12.90
2006,07,15,02,31,12.90
2006,07,15,02,32,12.90
2006,07,15,02,33,13.00
2006,07,15,02,34,13.00
2006,07,15,02,35,13.00
2006,07,15,02,36,13.00
2006,07,15,02,37,13.00
2006,07,15,02,38,13.00
2006,07,15,02,39,13.00
2006,07,15,02,40,13.00
2006,07,15,02,41,13.00
2006,07,15,02,42,13.10
2006,07,15,02,43,13.10
2006,07,15,02,44,13.10
2006,07,15,02,45,13.10
2006,07,15,02,46,13.10
2006,07,15,02,47,13.10
2006,07,15,02,48,13.10
2006,07,15,02,49,13.10
2006,07,15,02,50,13.10
2006,07,15,02,51,13.10
2006,07,15,02,52,13.20
2006,07,15,02,53,13.20
2006,07,15,02,54,13.20
2006,07,15,02,55,13.20
2006,07,15,02,56,13.20
2006,07,15,02,57,13.20
2006,07,15,02,58,13.20
2006,07,15,02,59,13.20
2006,07,15,03,00,13.20
2006,07,15,03,01,13.20
2006,07,15,03,02,13.20
2006,07,15,03,03,13.20
2006,07,15,03,04,13.20
2006,07,15,03,05,13.30
2006,07,15,03,06,13.30
2006,07,15,03,07,13.30
2006,07,15,03,08,13.30
2006,07,15,03,09,13.30
2006,07,15,03,10,13.30
2006,07,15,03,11,13.30
2006,07,15,03,12,13.30
2006,07,15,03,13,13.30
2006,07,15,03,14,13.30
2006,07,15,03,15,13.30
2006,07,15,03,16,13.30
2006,07,15,03,17,13.30
2006,07,15,03,18,13.30
2006,07,15,03,19,13.30
2006,07,15,03,20,13.30
2006,07,15,03,21,13.40
2006,07,15,03,22,13.40
2006,07,15,03,23,13.40
2006,07,15,03,24,13.40
2006,07,15,03,25,13.40
2006,07,15,03,26,13.40
2006,07,15,03,27,13.50
2006,07,15,03,28,13.50
2006,07,15,03,29,13.50
2006,07,15,03,30,13.50
2006,07,15,03,31,13.50
2006,07,15,03,32,13.50
2006,07,15,03,33,13.50
2006,07,15,03,34,13.50
2006,07,15,03,35,13.50
2006,07,15,03,36,13.50
2006,07,15,03,37,13.50
2006,07,15,03,38,13.50
2006,07,15,03,39,13.50
2006,07,15,03,40,13.50
2006,07,15,03,41,13.50
2006,07,15,03,42,13.50
2006,07,15,03,43,13.50
2006,07,15,03,44,13.50
2006,07,15,03,45,13.50
2006,07,15,03,46,13.50
2006,07,15,03,47,13.50
2006,07,15,03,48,13.60
2006,07,15,03,49,13.60
2006,07,15,03,50,13.60
2006,07,15,03,51,13.60
2006,07,15,03,52,13.60
2006,07,15,03,53,13.60
2006,07,15,03,54,13.60
2006,07,15,03,55,13.60
2006,07,15,03,56,13.60
2006,07,15,03,57,13.60
2006,07,15,03,58,13.60
2006,07,15,03,59,13.60
2006,07,15,04,00,13.60
2006,07,15,04,01,13.60
2006,07,15,04,02,13.60
2006,07,15,04,03,13.60
2006,07,15,04,04,13.60
2006,07,15,04,05,13.60
2006,07,15,04,06,13.50
2006,07,15,04,07,13.50
2006,07,15,04,08,13.50
2006,07,15,04,09,13.50
2006,07,15,04,10,13.50
2006,07,15,04,11,13.50
2006,07,15,04,12,13.50
2006,07,15,04,13,13.60
2006,07,15,04,14,13.60
2006,07,15,04,15,13.60
2006,07,15,04,16,13.60
2006,07,15,04,17,13.60
2006,07,15,04,18,13.60
2006,07,15,04,19,13.60
2006,07,15,04,20,13.60
2006,07,15,04,21,13.60
2006,07,15,04,22,13.60
2006,07,15,04,23,13.60
2006,07,15,04,24,13.60
2006,07,15,04,25,13.60
2006,07,15,04,26,13.60
2006,07,15,04,27,13.60
2006,07,15,04,28,13.60
2006,07,15,04,29,13.60
2006,07,15,04,30,13.60
2006,07,15,04,31,13.60
2006,07,15,04,32,13.60
2006,07,15,04,33,13.60
2006,07,15,04,34,13.60
2006,07,15,04,35,13.60
2006,07,15,04,36,13.60
2006,07,15,04,37,13.60
2006,07,15,04,38,13.60
2006,07,15,04,39,13.60
2006,07,15,04,40,13.60
2006,07,15,04,41,13.60
2006,07,15,04,42,13.60
2006,07,15,04,43,13.60
2006,07,15,04,44,13.60
2006,07,15,04,45,13.60
2006,07,15,04,46,13.60
2006,07,15,04,47,13.60
2006,07,15,04,48,13.60
2006,07,15,04,49,13.60
2006,07,15,04,50,13.60
2006,07,15,04,51,13.60
2006,07,15,04,52,13.60
2006,07,15,04,53,13.60
2006,07,15,04,54,13.60
2006,07,15,04,55,13.60
2006,07,15,04,56,13.60
2006,07,15,04,57,13.50
2006,07,15,04,58,13.50
2006,07,15,04,59,13.50
2006,07,15,05,00,13.50
2006,07,15,05,01,13.50
2006,07,15,05,02,13.50
2006,07,15,05,03,13.50
2006,07,15,05,04,13.50
2006,07,15,05,05,13.40
2006,07,15,05,06,13.40
2006,07,15,05,07,13.40
2006,07,15,05,08,13.40
2006,07,15,05,09,13.30
2006,07,15,05,10,13.30
2006,07,15,05,11,13.30
2006,07,15,05,12,13.30
2006,07,15,05,13,13.30
2006,07,15,05,14,13.30
2006,07,15,05,15,13.30
2006,07,15,05,16,13.30
2006,07,15,05,17,13.30
2006,07,15,05,18,13.30
2006,07,15,05,19,13.20
2006,07,15,05,20,13.20
2006,07,15,05,21,13.20
2006,07,15,05,22,13.20
2006,07,15,05,23,13.20
2006,07,15,05,24,13.10
2006,07,15,05,25,13.10
2006,07,15,05,26,13.10
2006,07,15,05,27,13.10
2006,07,15,05,28,13.00
2006,07,15,05,29,13.00
2006,07,15,05,30,13.00
2006,07,15,05,31,12.90
2006,07,15,05,32,12.90
2006,07,15,05,33,12.90
2006,07,15,05,34,12.80
2006,07,15,05,35,12.80
2006,07,15,05,36,12.80
2006,07,15,05,37,12.80
2006,07,15,05,38,12.70
2006,07,15,05,39,12.70
2006,07,15,05,40,12.60
2006,07,15,05,41,12.60
2006,07,15,05,42,12.60
2006,07,15,05,43,12.50
2006,07,15,05,44,12.50
2006,07,15,05,45,12.50
2006,07,15,05,46,12.40
2006,07,15,05,47,12.40
2006,07,15,05,48,12.40
2006,07,15,05,49,12.30
2006,07,15,05,50,12.30
2006,07,15,05,51,12.30
2006,07,15,05,52,12.30
2006,07,15,05,53,12.30
2006,07,15,05,54,12.30
2006,07,15,05,55,12.30
2006,07,15,05,56,12.30
2006,07,15,05,57,12.30
2006,07,15,05,58,12.20
2006,07,15,05,59,12.20
2006,07,15,06,00,12.20
2006,07,15,06,01,12.20
2006,07,15,06,02,12.20
2006,07,15,06,03,12.20
2006,07,15,06,04,12.20
2006,07,15,06,05,12.20
2006,07,15,06,06,12.20
2006,07,15,06,07,12.20
2006,07,15,06,08,12.20
2006,07,15,06,09,12.20
2006,07,15,06,10,12.20
2006,07,15,06,11,12.30
2006,07,15,06,12,12.30
2006,07,15,06,13,12.30
2006,07,15,06,14,12.30
2006,07,15,06,15,12.30
2006,07,15,06,16,12.30
2006,07,15,06,17,12.30
2006,07,15,06,18,12.30
2006,07,15,06,19,12.30
2006,07,15,06,20,12.30
2006,07,15,06,21,12.30
2006,07,15,06,22,12.30
2006,07,15,06,23,12.30
2006,07,15,06,24,12.30
2006,07,15,06,25,12.30
2006,07,15,06,26,12.30
2006,07,15,06,27,12.30
2006,07,15,06,28,12.30
2006,07,15,06,29,12.30
2006,07,15,06,30,12.30
2006,07,15,06,31,12.30
2006,07,15,06,32,12.30
2006,07,15,06,33,12.30
2006,07,15,06,34,12.30
2006,07,15,06,35,12.30
2006,07,15,06,36,12.30
2006,07,15,06,37,12.40
2006,07,15,06,38,12.40
2006,07,15,06,39,12.40
2006,07,15,06,40,12.50
2006,07,15,06,41,12.50
2006,07,15,06,42,12.50
2006,07,15,06,43,12.60
2006,07,15,06,44,12.60
2006,07,15,06,45,12.70
2006,07,15,06,46,12.70
2006,07,15,06,47,12.70
2006,07,15,06,48,12.80
2006,07,15,06,49,12.80
2006,07,15,06,50,12.80
2006,07,15,06,51,12.80
2006,07,15,06,52,12.80
2006,07,15,06,53,12.90
2006,07,15,06,54,12.90
2006,07,15,06,55,12.90
2006,07,15,06,56,13.00
2006,07,15,06,57,13.00
2006,07,15,06,58,13.00
2006,07,15,06,59,13.10
2006,07,15,07,00,13.10
2006,07,15,07,01,13.10
2006,07,15,07,02,13.20
2006,07,15,07,03,13.20
2006,07,15,07,04,13.20
2006,07,15,07,05,13.20
2006,07,15,07,06,13.30
2006,07,15,07,07,13.30
2006,07,15,07,08,13.30
2006,07,15,07,09,13.30
2006,07,15,07,10,13.30
2006,07,15,07,11,13.40
2006,07,15,07,12,13.40
2006,07,15,07,13,13.40
2006,07,15,07,14,13.50
2006,07,15,07,15,13.50
2006,07,15,07,16,13.60
2006,07,15,07,17,13.60
2006,07,15,07,18,13.60
2006,07,15,07,19,13.70
2006,07,15,07,20,13.70
2006,07,15,07,21,13.70
2006,07,15,07,22,13.70
2006,07,15,07,23,13.80
2006,07,15,07,24,13.80
2006,07,15,07,25,13.90
2006,07,15,07,26,13.90
2006,07,15,07,27,13.90
2006,07,15,07,28,14.00
2006,07,15,07,29,14.00
2006,07,15,07,30,14.10
2006,07,15,07,31,14.10
2006,07,15,07,32,14.20
2006,07,15,07,33,14.20
2006,07,15,07,34,14.20
2006,07,15,07,35,14.30
2006,07,15,07,36,14.30
2006,07,15,07,37,14.40
2006,07,15,07,38,14.50
2006,07,15,07,39,14.50
2006,07,15,07,40,14.60
2006,07,15,07,41,14.60
2006,07,15,07,42,14.70
2006,07,15,07,43,14.70
2006,07,15,07,44,14.70
2006,07,15,07,45,14.80
2006,07,15,07,46,14.80
2006,07,15,07,47,14.80
2006,07,15,07,48,14.80
2006,07,15,07,49,14.80
2006,07,15,07,50,14.90
2006,07,15,07,51,14.90
2006,07,15,07,52,14.90
2006,07,15,07,53,14.90
2006,07,15,07,54,14.90
2006,07,15,07,55,14.90
2006,07,15,07,56,15.00
2006,07,15,07,57,15.00
2006,07,15,07,58,15.00
2006,07,15,07,59,15.00
2006,07,15,08,00,15.00
2006,07,15,08,01,15.10
2006,07,15,08,02,15.10
2006,07,15,08,03,15.10
2006,07,15,08,04,15.10
2006,07,15,08,05,15.10
2006,07,15,08,06,15.10
2006,07,15,08,07,15.20
2006,07,15,08,08,15.20
2006,07,15,08,09,15.20
2006,07,15,08,10,15.20
2006,07,15,08,11,15.30
2006,07,15,08,12,15.30
2006,07,15,08,13,15.30
2006,07,15,08,14,15.30
2006,07,15,08,15,15.30
2006,07,15,08,16,15.30
2006,07,15,08,17,15.30
2006,07,15,08,18,15.30
2006,07,15,08,19,15.30
2006,07,15,08,20,15.30
2006,07,15,08,21,15.30
2006,07,15,08,22,15.30
2006,07,15,08,23,15.30
2006,07,15,08,24,15.30
2006,07,15,08,25,15.30
2006,07,15,08,26,15.30
2006,07,15,08,27,15.30
2006,07,15,08,28,15.30
2006,07,15,08,29,15.30
2006,07,15,08,30,15.30
2006,07,15,08,31,15.30
2006,07,15,08,32,15.30
2006,07,15,08,33,15.30
2006,07,15,08,34,15.40
2006,07,15,08,35,15.40
2006,07,15,08,36,15.50
2006,07,15,08,37,15.50
2006,07,15,08,38,15.60
2006,07,15,08,39,15.60
2006,07,15,08,40,15.70
2006,07,15,08,41,15.80
2006,07,15,08,42,15.80
2006,07,15,08,43,15.80
2006,07,15,08,44,15.90
2006,07,15,08,45,16.00
2006,07,15,08,46,16.10
2006,07,15,08,47,16.10
2006,07,15,08,48,16.10
2006,07,15,08,49,16.10
2006,07,15,08,50,16.20
2006,07,15,08,51,16.20
2006,07,15,08,52,16.20
2006,07,15,08,53,16.30
2006,07,15,08,54,16.30
2006,07,15,08,55,16.30
2006,07,15,08,56,16.40
2006,07,15,08,57,16.40
2006,07,15,08,58,16.40
2006,07,15,08,59,16.40
2006,07,15,09,00,16.60
2006,07,15,09,01,16.60
2006,07,15,09,02,16.60
2006,07,15,09,03,16.70
2006,07,15,09,04,16.80
2006,07,15,09,05,16.90
2006,07,15,09,06,16.90
2006,07,15,09,07,17.10
2006,07,15,09,08,17.20
2006,07,15,09,09,17.40
2006,07,15,09,10,17.50
2006,07,15,09,11,17.60
2006,07,15,09,12,17.60
2006,07,15,09,13,17.70
2006,07,15,09,14,17.80
2006,07,15,09,15,17.80
2006,07,15,09,16,17.90
2006,07,15,09,17,17.90
2006,07,15,09,18,18.00
2006,07,15,09,19,18.10
2006,07,15,09,20,18.20
2006,07,15,09,21,18.30
2006,07,15,09,22,18.30
2006,07,15,09,23,18.20
2006,07,15,09,24,18.30
2006,07,15,09,25,18.30
2006,07,15,09,26,18.30
2006,07,15,09,27,18.30
2006,07,15,09,28,18.30
2006,07,15,09,29,18.30
2006,07,15,09,30,18.30
2006,07,15,09,31,18.40
2006,07,15,09,32,18.50
2006,07,15,09,33,18.60
2006,07,15,09,34,18.70
2006,07,15,09,35,18.80
2006,07,15,09,36,18.80
2006,07,15,09,37,18.80
2006,07,15,09,38,18.90
2006,07,15,09,39,18.90
2006,07,15,09,40,18.90
2006,07,15,09,41,18.90
2006,07,15,09,42,18.90
2006,07,15,09,43,18.90
2006,07,15,09,44,19.00
2006,07,15,09,45,19.10
2006,07,15,09,46,19.10
2006,07,15,09,47,19.10
2006,07,15,09,48,19.10
2006,07,15,09,49,19.10
2006,07,15,09,50,19.10
2006,07,15,09,51,19.10
2006,07,15,09,52,19.10
2006,07,15,09,53,19.10
2006,07,15,09,54,19.10
2006,07,15,09,55,19.10
2006,07,15,09,56,19.10
2006,07,15,09,57,19.10
2006,07,15,09,58,19.00
2006,07,15,09,59,18.90
2006,07,15,10,00,18.80
2006,07,15,10,01,18.70
2006,07,15,10,02,18.60
2006,07,15,10,03,18.60
2006,07,15,10,04,18.60
2006,07,15,10,05,18.60
2006,07,15,10,06,18.60
2006,07,15,10,07,18.60
2006,07,15,10,08,18.60
2006,07,15,10,09,18.60
2006,07,15,10,10,18.50
2006,07,15,10,11,18.50
2006,07,15,10,12,18.50
2006,07,15,10,13,18.50
2006,07,15,10,14,18.50
2006,07,15,10,15,18.50
2006,07,15,10,16,18.50
2006,07,15,10,17,18.50
2006,07,15,10,18,18.50
2006,07,15,10,19,18.50
2006,07,15,10,20,18.50
2006,07,15,10,21,18.50
2006,07,15,10,22,18.50
2006,07,15,10,23,18.50
2006,07,15,10,24,18.50
2006,07,15,10,25,18.60
2006,07,15,10,26,18.70
2006,07,15,10,27,18.80
2006,07,15,10,28,18.90
2006,07,15,10,29,19.00
2006,07,15,10,30,19.10
2006,07,15,10,31,19.20
2006,07,15,10,32,19.40
2006,07,15,10,33,19.50
2006,07,15,10,34,19.60
2006,07,15,10,35,19.60
2006,07,15,10,36,19.50
2006,07,15,10,37,19.40
2006,07,15,10,38,19.40
2006,07,15,10,39,19.40
2006,07,15,10,40,19.50
2006,07,15,10,41,19.50
2006,07,15,10,42,19.50
2006,07,15,10,43,19.60
2006,07,15,10,44,19.60
2006,07,15,10,45,19.60
2006,07,15,10,46,19.60
2006,07,15,10,47,19.50
2006,07,15,10,48,19.40
2006,07,15,10,49,19.40
2006,07,15,10,50,19.50
2006,07,15,10,51,19.50
2006,07,15,10,52,19.40
2006,07,15,10,53,19.50
2006,07,15,10,54,19.50
2006,07,15,10,55,19.40
2006,07,15,10,56,19.30
2006,07,15,10,57,19.30
2006,07,15,10,58,19.30
2006,07,15,10,59,19.30
2006,07,15,11,00,19.20
2006,07,15,11,01,19.30
2006,07,15,11,02,19.30
2006,07,15,11,03,19.40
2006,07,15,11,04,19.40
2006,07,15,11,05,19.40
2006,07,15,11,06,19.40
2006,07,15,11,07,19.50
2006,07,15,11,08,19.50
2006,07,15,11,09,19.50
2006,07,15,11,10,19.50
2006,07,15,11,11,19.50
2006,07,15,11,12,19.60
2006,07,15,11,13,19.60
2006,07,15,11,14,19.70
2006,07,15,11,15,19.80
2006,07,15,11,16,19.90
2006,07,15,11,17,20.00
2006,07,15,11,18,20.10
2006,07,15,11,19,20.20
2006,07,15,11,20,20.30
2006,07,15,11,21,20.30
2006,07,15,11,22,20.30
2006,07,15,11,23,20.30
2006,07,15,11,24,20.40
2006,07,15,11,25,20.40
2006,07,15,11,26,20.40
2006,07,15,11,27,20.40
2006,07,15,11,28,20.50
2006,07,15,11,29,20.50
2006,07,15,11,30,20.50
2006,07,15,11,31,20.50
2006,07,15,11,32,20.40
2006,07,15,11,33,20.50
2006,07,15,11,34,20.50
2006,07,15,11,35,20.60
2006,07,15,11,36,20.60
2006,07,15,11,37,20.70
2006,07,15,11,38,20.60
2006,07,15,11,39,20.60
2006,07,15,11,40,20.70
2006,07,15,11,41,20.70
2006,07,15,11,42,20.70
2006,07,15,11,43,20.80
2006,07,15,11,44,20.80
2006,07,15,11,45,20.80
2006,07,15,11,46,20.80
2006,07,15,11,47,20.70
2006,07,15,11,48,20.80
2006,07,15,11,49,20.80
2006,07,15,11,50,20.80
2006,07,15,11,51,20.90
2006,07,15,11,52,21.00
2006,07,15,11,53,21.10
2006,07,15,11,54,21.20
2006,07,15,11,55,21.20
2006,07,15,11,56,21.20
2006,07,15,11,57,21.30
2006,07,15,11,58,21.30
2006,07,15,11,59,21.30
2006,07,15,12,00,21.30
2006,07,15,12,01,21.30
2006,07,15,12,02,21.30
2006,07,15,12,03,21.30
2006,07,15,12,04,21.30
2006,07,15,12,05,21.30
2006,07,15,12,06,21.30
2006,07,15,12,07,21.20
2006,07,15,12,08,21.20
2006,07,15,12,09,21.20
2006,07,15,12,10,21.10
2006,07,15,12,11,21.10
2006,07,15,12,12,21.10
2006,07,15,12,13,21.20
2006,07,15,12,14,21.20
2006,07,15,12,15,21.10
2006,07,15,12,16,21.10
2006,07,15,12,17,21.10
2006,07,15,12,18,21.20
2006,07,15,12,19,21.20
2006,07,15,12,20,21.20
2006,07,15,12,21,21.30
2006,07,15,12,22,21.30
2006,07,15,12,23,21.30
2006,07,15,12,24,21.30
2006,07,15,12,25,21.30
2006,07,15,12,26,21.30
2006,07,15,12,27,21.30
2006,07,15,12,28,21.30
2006,07,15,12,29,21.40
2006,07,15,12,30,21.50
2006,07,15,12,31,21.60
2006,07,15,12,32,21.60
2006,07,15,12,33,21.70
2006,07,15,12,34,21.70
2006,07,15,12,35,21.80
2006,07,15,12,36,21.80
2006,07,15,12,37,21.90
2006,07,15,12,38,21.90
2006,07,15,12,39,21.90
2006,07,15,12,40,21.90
2006,07,15,12,41,22.00
2006,07,15,12,42,22.10
2006,07,15,12,43,22.20
2006,07,15,12,44,22.30
2006,07,15,12,45,22.20
2006,07,15,12,46,22.20
2006,07,15,12,47,22.30
2006,07,15,12,48,22.30
2006,07,15,12,49,22.30
2006,07,15,12,50,22.30
2006,07,15,12,51,22.30
2006,07,15,12,52,22.30
2006,07,15,12,53,22.30
2006,07,15,12,54,22.20
2006,07,15,12,55,22.20
2006,07,15,12,56,22.20
2006,07,15,12,57,22.10
2006,07,15,12,58,22.10
2006,07,15,12,59,22.10
2006,07,15,13,00,22.00
2006,07,15,13,01,22.00
2006,07,15,13,02,22.10
2006,07,15,13,03,22.10
2006,07,15,13,04,22.10
2006,07,15,13,05,22.00
2006,07,15,13,06,22.00
2006,07,15,13,07,22.00
2006,07,15,13,08,22.00
2006,07,15,13,09,22.00
2006,07,15,13,10,22.00
2006,07,15,13,11,22.20
2006,07,15,13,12,22.30
2006,07,15,13,13,22.40
2006,07,15,13,14,22.50
2006,07,15,13,15,22.50
2006,07,15,13,16,22.50
2006,07,15,13,17,22.60
2006,07,15,13,18,22.60
2006,07,15,13,19,22.60
2006,07,15,13,20,22.60
2006,07,15,13,21,22.70
2006,07,15,13,22,22.70
2006,07,15,13,23,22.80
2006,07,15,13,24,22.80
2006,07,15,13,25,22.90
2006,07,15,13,26,22.90
2006,07,15,13,27,22.90
2006,07,15,13,28,22.80
2006,07,15,13,29,22.80
2006,07,15,13,30,22.90
2006,07,15,13,31,22.90
2006,07,15,13,32,23.00
2006,07,15,13,33,23.10
2006,07,15,13,34,23.20
2006,07,15,13,35,23.10
2006,07,15,13,36,23.00
2006,07,15,13,37,23.10
2006,07,15,13,38,23.20
2006,07,15,13,39,23.20
2006,07,15,13,40,23.10
2006,07,15,13,41,23.00
2006,07,15,13,42,22.90
2006,07,15,13,43,22.90
2006,07,15,13,44,22.90
2006,07,15,13,45,22.90
2006,07,15,13,46,22.80
2006,07,15,13,47,22.80
2006,07,15,13,48,22.80
2006,07,15,13,49,22.80
2006,07,15,13,50,22.80
2006,07,15,13,51,22.80
2006,07,15,13,52,22.70
2006,07,15,13,53,22.70
2006,07,15,13,54,22.70
2006,07,15,13,55,22.80
2006,07,15,13,56,22.80
2006,07,15,13,57,22.80
2006,07,15,13,58,22.90
2006,07,15,13,59,22.80
2006,07,15,14,00,22.80
2006,07,15,14,01,22.70
2006,07,15,14,02,22.70
2006,07,15,14,03,22.60
2006,07,15,14,04,22.50
2006,07,15,14,05,22.50
2006,07,15,14,06,22.50
2006,07,15,14,07,22.50
2006,07,15,14,08,22.60
2006,07,15,14,09,22.60
2006,07,15,14,10,22.70
2006,07,15,14,11,22.80
2006,07,15,14,12,22.80
2006,07,15,14,13,22.80
2006,07,15,14,14,22.80
2006,07,15,14,15,22.80
2006,07,15,14,16,22.70
2006,07,15,14,17,22.70
2006,07,15,14,18,22.80
2006,07,15,14,19,22.80
2006,07,15,14,20,22.80
2006,07,15,14,21,22.80
2006,07,15,14,22,22.80
2006,07,15,14,23,22.70
2006,07,15,14,24,22.70
2006,07,15,14,25,22.80
2006,07,15,14,26,22.80
2006,07,15,14,27,22.90
2006,07,15,14,28,22.90
2006,07,15,14,29,22.90
2006,07,15,14,30,22.90
2006,07,15,14,31,22.90
2006,07,15,14,32,22.90
2006,07,15,14,33,22.80
2006,07,15,14,34,22.80
2006,07,15,14,35,22.70
2006,07,15,14,36,22.70
2006,07,15,14,37,22.80
2006,07,15,14,38,22.80
2006,07,15,14,39,22.80
2006,07,15,14,40,22.80
2006,07,15,14,41,22.80
2006,07,15,14,42,22.80
2006,07,15,14,43,22.80
2006,07,15,14,44,22.80
2006,07,15,14,45,22.90
2006,07,15,14,46,22.90
2006,07,15,14,47,22.90
2006,07,15,14,48,22.90
2006,07,15,14,49,22.90
2006,07,15,14,50,22.80
2006,07,15,14,51,22.70
2006,07,15,14,52,22.50
2006,07,15,14,53,22.40
2006,07,15,14,54,22.40
2006,07,15,14,55,22.40
2006,07,15,14,56,22.30
2006,07,15,14,57,22.30
2006,07,15,14,58,22.40
2006,07,15,14,59,22.50
2006,07,15,15,00,22.60
2006,07,15,15,01,22.60
2006,07,15,15,02,22.70
2006,07,15,15,03,22.90
2006,07,15,15,04,22.90
2006,07,15,15,05,22.90
2006,07,15,15,06,22.90
2006,07,15,15,07,22.90
2006,07,15,15,08,22.90
2006,07,15,15,09,23.00
2006,07,15,15,10,23.10
2006,07,15,15,11,23.10
2006,07,15,15,12,23.10
2006,07,15,15,13,23.00
2006,07,15,15,14,22.90
2006,07,15,15,15,22.90
2006,07,15,15,16,22.80
2006,07,15,15,17,22.80
2006,07,15,15,18,22.90
2006,07,15,15,19,22.90
2006,07,15,15,20,22.90
2006,07,15,15,21,22.90
2006,07,15,15,22,22.80
2006,07,15,15,23,22.90
2006,07,15,15,24,22.90
2006,07,15,15,25,22.90
2006,07,15,15,26,22.90
2006,07,15,15,27,22.90
2006,07,15,15,28,22.90
2006,07,15,15,29,22.90
2006,07,15,15,30,22.80
2006,07,15,15,31,22.80
2006,07,15,15,32,22.70
2006,07,15,15,33,22.70
2006,07,15,15,34,22.70
2006,07,15,15,35,22.70
2006,07,15,15,36,22.80
2006,07,15,15,37,22.90
2006,07,15,15,38,22.90
2006,07,15,15,39,22.90
2006,07,15,15,40,22.90
2006,07,15,15,41,22.90
2006,07,15,15,42,22.90
2006,07,15,15,43,22.80
2006,07,15,15,44,22.80
2006,07,15,15,45,22.80
2006,07,15,15,46,22.80
2006,07,15,15,47,22.80
2006,07,15,15,48,22.80
2006,07,15,15,49,22.70
2006,07,15,15,50,22.80
2006,07,15,15,51,22.90
2006,07,15,15,52,22.90
2006,07,15,15,53,22.90
2006,07,15,15,54,23.00
2006,07,15,15,55,23.00
2006,07,15,15,56,22.90
2006,07,15,15,57,22.90
2006,07,15,15,58,22.90
2006,07,15,15,59,22.90
2006,07,15,16,00,23.00
2006,07,15,16,01,23.10
2006,07,15,16,02,23.30
2006,07,15,16,03,23.10
2006,07,15,16,04,23.00
2006,07,15,16,05,22.90
2006,07,15,16,06,22.90
2006,07,15,16,07,22.90
2006,07,15,16,08,22.90
2006,07,15,16,09,22.90
2006,07,15,16,10,22.90
2006,07,15,16,11,22.90
2006,07,15,16,12,23.10
2006,07,15,16,13,23.20
2006,07,15,16,14,23.10
2006,07,15,16,15,23.10
2006,07,15,16,16,23.00
2006,07,15,16,17,22.90
2006,07,15,16,18,22.90
2006,07,15,16,19,22.90
2006,07,15,16,20,22.80
2006,07,15,16,21,22.70
2006,07,15,16,22,22.70
2006,07,15,16,23,22.70
2006,07,15,16,24,22.70
2006,07,15,16,25,22.60
2006,07,15,16,26,22.70
2006,07,15,16,27,22.80
2006,07,15,16,28,22.80
2006,07,15,16,29,22.70
2006,07,15,16,30,22.60
2006,07,15,16,31,22.60
2006,07,15,16,32,22.60
2006,07,15,16,33,22.60
2006,07,15,16,34,22.60
2006,07,15,16,35,22.50
2006,07,15,16,36,22.30
2006,07,15,16,37,22.20
2006,07,15,16,38,22.20
2006,07,15,16,39,22.20
2006,07,15,16,40,22.20
2006,07,15,16,41,22.00
2006,07,15,16,42,21.90
2006,07,15,16,43,21.90
2006,07,15,16,44,21.90
2006,07,15,16,45,21.80
2006,07,15,16,46,21.70
2006,07,15,16,47,21.70
2006,07,15,16,48,21.70
2006,07,15,16,49,21.80
2006,07,15,16,50,21.90
2006,07,15,16,51,22.00
2006,07,15,16,52,22.10
2006,07,15,16,53,22.10
2006,07,15,16,54,22.10
2006,07,15,16,55,22.10
2006,07,15,16,56,22.10
2006,07,15,16,57,22.10
2006,07,15,16,58,22.10
2006,07,15,16,59,22.10
2006,07,15,17,00,22.20
2006,07,15,17,01,22.20
2006,07,15,17,02,22.20
2006,07,15,17,03,22.20
2006,07,15,17,04,22.10
2006,07,15,17,05,22.00
2006,07,15,17,06,22.00
2006,07,15,17,07,22.10
2006,07,15,17,08,22.20
2006,07,15,17,09,22.20
2006,07,15,17,10,22.30
2006,07,15,17,11,22.30
2006,07,15,17,12,22.20
2006,07,15,17,13,22.20
2006,07,15,17,14,22.20
2006,07,15,17,15,22.20
2006,07,15,17,16,22.20
2006,07,15,17,17,22.20
2006,07,15,17,18,22.10
2006,07,15,17,19,22.10